AO-07 1 07530U 74089B 25023.64621606 -.00000015 00000-0 19408-3 0 9998 2 07530 101.9920 26.4598 0012294 24.5209 101.2702 12.53685292296905 UO-11 1 14781U 84021B 25023.37971418 .00004214 00000-0 45851-3 0 9995 2 14781 97.7355 352.6944 0009492 73.6435 286.5825 14.88537647181227 AO-27 1 22825U 93061C 25023.77927145 .00000355 00000-0 15306-3 0 9993 2 22825 98.7587 84.5279 0008982 147.9807 212.1923 14.30713897634425 FO-29 1 24278U 96046B 25023.60097991 .00000048 00000-0 87155-4 0 9993 2 24278 98.5884 295.4280 0349716 337.5639 21.0519 13.53233318404247 NOAA-15 1 25338U 98030A 25023.79572883 .00000461 00000-0 20738-3 0 9996 2 25338 98.5502 52.1270 0010944 44.4026 315.8030 14.26864339388899 GO-32 1 25397U 98043D 25023.49321862 .00000354 00000-0 17345-3 0 9992 2 25397 98.9535 359.8801 0000550 194.2663 165.8500 14.24239847378773 ISS 1 25544U 98067A 25023.90905763 .00027558 00000-0 48107-3 0 9991 2 25544 51.6402 301.6901 0002257 124.3159 355.3002 15.50473050492789 NO-44 1 26931U 01043C 25023.58219389 .00000606 00000-0 25850-3 0 9991 2 26931 67.0513 122.0176 0006202 261.9707 98.0691 14.31593769217490 SO-50 1 27607U 02058C 25023.63637731 .00003234 00000-0 43093-3 0 9999 2 27607 64.5542 263.0066 0039665 9.7506 350.4359 14.80821098188949 CO-55 1 27844U 03031E 25023.58448340 .00000972 00000-0 44397-3 0 9998 2 27844 98.6783 33.6264 0008957 220.4694 139.5820 14.23781272119149 CO-57 1 27848U 03031J 25023.47017840 .00000887 00000-0 41186-3 0 9995 2 27848 98.6811 33.6197 0008629 239.1453 120.8877 14.23147705118866 RS-22 1 27939U 03042A 25023.84836828 .00003271 00000-0 53312-3 0 9998 2 27939 98.3106 190.1660 0012657 83.3179 22.6361 14.71637111140719 NOAA-18 1 28654U 05018A 25023.79872758 .00000470 00000-0 27266-3 0 9991 2 28654 98.8553 104.7652 0014753 154.7972 205.3923 14.13495354 14429 CO-58 1 28895U 05043F 25023.61891144 .00004349 00000-0 73244-3 0 9993 2 28895 98.2258 166.5297 0015295 24.3726 335.8199 14.69987380 26810 CO-65 1 32785U 08021C 25023.48327162 .00011088 00000-0 85498-3 0 9996 2 32785 97.7665 354.0356 0008738 330.5847 29.4884 15.01747689908481 AAUSAT2 1 32788U 08021F 25023.72501489 .00089828 00000-0 19785-2 0 9994 2 32788 97.6052 14.3671 0007311 101.3071 258.8998 15.43586063912109 CO-66 1 32791U 08021J 25023.75616913 .00022056 00000-0 12493-2 0 9999 2 32791 97.7147 1.4082 0002304 288.7738 71.3242 15.13028075909847 RS-30 1 32953U 08025A 25023.82856284 .00000029 00000-0 13651-3 0 9992 2 32953 82.5059 312.2482 0019662 347.0123 13.0448 12.43157771756544 NOAA-19 1 33591U 09005A 25023.78299149 .00000396 00000-0 23548-3 0 9999 2 33591 99.0182 87.6127 0014154 33.7555 326.4515 14.13267063822782 SRMSAT 1 37841U 11058D 25023.79565043 .00000699 00000-0 23659-3 0 9991 2 37841 19.9715 262.2440 0011715 0.7278 66.9271 14.11344030685984 ZACUBE-1 1 39417U 13066B 25023.09374788 .00010097 00000-0 92815-3 0 9993 2 39417 97.7628 341.2217 0047321 148.7151 211.6900 14.94124836604369 Delfi-N3xt 1 39428U 13066N 25023.74626952 .00011983 00000-0 13114-2 0 9999 2 39428 97.8377 303.2392 0092061 90.0158 271.1606 14.84856563598928 GOMX-1 1 39430U 13066Q 25023.74820928 .00005571 00000-0 88633-3 0 9996 2 39430 97.7018 250.7318 0133419 270.1933 88.3985 14.66587053595347 LO-74 1 39440U 13066AA 25023.85616527 .00009944 00000-0 10553-2 0 9990 2 39440 97.8356 329.6879 0062715 270.8380 88.5651 14.87799264602292 AO-73 1 39444U 13066AE 25023.45877891 .00013493 00000-0 11054-2 0 9994 2 39444 97.7485 345.5125 0044048 123.6092 236.9347 14.98634631603024 DTUSAT-2 1 40030U 14033W 25023.35223399 .00014518 00000-0 10312-2 0 9994 2 40030 98.0396 349.0201 0010767 151.4323 208.7495 15.04776411575731 EO-80 1 40032U 14033Y 25023.31368354 .00016026 00000-0 11356-2 0 9998 2 40032 98.0276 348.8179 0010750 101.7912 258.4520 15.04842929575701 XW-2C 1 40906U 15049H 25023.00952959 .00352863 00000-0 12586-2 0 9990 2 40906 97.4459 56.3431 0003265 176.6222 183.5073 15.88024150518693 LILACSAT-2 1 40908U 15049K 25023.79804392 .00018123 00000-0 55021-3 0 9995 2 40908 97.5178 41.2184 0008556 295.6200 64.4158 15.34110170517226 IO-86 1 40931U 15052B 25020.20147130 .00001860 00000-0 16130-3 0 9996 2 40931 5.9986 241.3177 0013325 280.8560 79.0069 14.78521742503622 Horyu-4 1 41340U 16012D 25023.86078556 .00031372 00000-0 10999-2 0 9995 2 41340 30.9994 325.6655 0005695 77.1407 282.9873 15.28249530491799 Lapan A3 1 41603U 16040E 25023.79797049 .00006339 00000-0 23252-3 0 9997 2 41603 97.1394 33.9064 0012697 44.6482 315.5779 15.28226288476881 CAS-2T 1 41847U 16066G 25023.61466230 .00003509 00000-0 51261-3 0 9998 2 41847 98.4364 99.2398 0347872 232.5118 124.3973 14.42765851431261 CAS-4B 1 42759U 17034B 25023.49519708 .00046918 00000-0 96242-3 0 9991 2 42759 43.0133 47.5015 0014531 52.3276 307.8898 15.45193173421272 CAS-4A 1 42761U 17034D 25023.53122775 .00045537 00000-0 92088-3 0 9993 2 42761 43.0170 45.3166 0015567 60.4650 299.7758 15.45603362421297 TechnoSat 1 42829U 17042E 25022.38061371 .00007243 00000-0 58501-3 0 9997 2 42829 97.3931 197.8059 0013796 49.3001 310.9419 15.00036205409991 AO-91 1 43017U 17073E 25023.58497561 .00017691 00000-0 96851-3 0 9996 2 43017 97.5481 257.9448 0183954 273.0308 84.9881 15.00901561388637 S-Net D 1 43186U 18014G 25023.72403806 .00010093 00000-0 63509-3 0 9997 2 43186 97.5753 288.1542 0009162 346.6995 13.3990 15.09362791381718 S-Net B 1 43187U 18014H 25023.19751281 .00011420 00000-0 71830-3 0 9993 2 43187 97.5757 287.5987 0009856 342.0448 18.0431 15.09337782381637 S-Net A 1 43188U 18014J 25023.19448668 .00011322 00000-0 71188-3 0 9993 2 43188 97.5769 287.7290 0009748 343.3409 16.7498 15.09356178381639 S-Net C 1 43189U 18014K 25023.72998746 .00010270 00000-0 64618-3 0 9991 2 43189 97.5781 288.2483 0011031 332.0417 28.0218 15.09346464380267 Ten-Koh 1 43677U 18084G 25023.30890048 .00006483 00000-0 53742-3 0 9997 2 43677 98.0810 190.1779 0013186 4.5594 355.5745 14.99127918339667 PO-101 1 43678U 18084H 25023.77013073 .00003135 00000-0 27654-3 0 9998 2 43678 98.0905 194.8626 0009564 28.1508 332.0228 14.97156313339909 QO-100 1 43700U 18090A 25023.77705589 .00000166 00000-0 00000+0 0 9994 2 43700 0.0175 59.2562 0001099 260.9675 108.7123 1.00273782 22817 MinXSS-2 1 43758U 18099A 25023.11294798 .00024078 00000-0 11456-2 0 9997 2 43758 97.5243 89.2007 0012585 280.2058 79.7757 15.19097656336059 AO-95 1 43770U 18099N 25023.10112085 .00017206 00000-0 97351-3 0 9992 2 43770 97.5155 82.9378 0011372 334.5935 25.4735 15.13067556335734 RANGE-A 1 43773U 18099R 25023.12096471 .00008761 00000-0 59084-3 0 9994 2 43773 97.4720 75.5476 0010520 308.9638 51.0651 15.06828949335500 MOVE-II 1 43780U 18099Y 25023.17808882 .00068892 00000-0 17963-2 0 9994 2 43780 97.4883 92.8709 0003894 287.5658 72.5161 15.38583848336460 SNUSat 2 1 43782U 18099AA 25023.64179690 .00013578 00000-0 81193-3 0 9994 2 43782 97.4829 81.2687 0011739 267.3119 92.6767 15.11121470335794 SnugLite 1 43784U 18099AC 25023.09312421 .00017264 00000-0 97043-3 0 9993 2 43784 97.4651 80.0813 0002505 278.2981 81.7966 15.13351529335811 ITASat 1 1 43786U 18099AE 25023.05260624 .00011956 00000-0 73918-3 0 9995 2 43786 97.4796 80.5591 0014588 324.7927 35.2337 15.09904540335685 EAGLET 1 1 43790U 18099AJ 25023.60641335 .00008006 00000-0 53792-3 0 9993 2 43790 97.4998 81.4202 0011197 303.4742 56.5415 15.06992824335429 ESEO 1 43792U 18099AL 25023.58216251 .00003265 00000-0 25565-3 0 9996 2 43792 97.4701 76.4063 0008003 255.6131 104.4206 15.01662322335258 CSIM 1 43793U 18099AM 25023.16352640 .00077120 00000-0 20209-2 0 9994 2 43793 97.5054 94.7821 0007616 258.3966 101.6424 15.38372922336303 JO-97 1 43803U 18099AX 25023.12612098 .00019238 00000-0 10093-2 0 9994 2 43803 97.4894 83.7511 0007090 265.0392 95.0031 15.15768242335919 Suomi 100 1 43804U 18099AY 25023.61252463 .00016134 00000-0 88756-3 0 9999 2 43804 97.4963 83.8398 0012137 263.6289 96.3561 15.14078438335943 ISAT 1 43879U 18111D 25023.19939163 .00030716 00000-0 13464-2 0 9993 2 43879 97.6053 295.2920 0009475 332.2448 27.8281 15.21898504332743 UWE-4 1 43880U 18111E 25023.74334191 .00023869 00000-0 11236-2 0 9992 2 43880 97.5988 295.1162 0013143 338.1371 21.9301 15.19463412330801 Sparrow 1 43881U 18111F 25023.20882995 .00032180 00000-0 13763-2 0 9997 2 43881 97.6169 297.7170 0008913 15.6306 344.5204 15.22730945332827 Prox-1 1 44339U 19036A 25023.81861343 .00017699 00000-0 25184-2 0 9992 2 44339 23.9971 237.1520 0007954 320.3485 39.6430 14.75252967297850 SONATE 1 44400U 19038Q 25023.54874612 .00068250 00000-0 98836-3 0 9990 2 44400 97.7111 36.6147 0012241 44.7665 315.4574 15.55573246308068 Taurus 1 1 44530U 19059C 25023.78818310 .00015296 00000-0 30321-2 0 9992 2 44530 98.5891 157.1761 0009787 99.0985 261.1323 14.62307585283920 Duchifat 3 1 44854U 19089C 25023.64100806 .00048089 00000-0 15080-2 0 9994 2 44854 36.9477 136.4759 0009616 137.7228 222.4267 15.32042695281834 TO-108 1 44881U 19093C 25023.80851587 .00002564 00000-0 30614-3 0 9995 2 44881 97.8077 102.2838 0013152 325.2747 34.7608 14.85034526275775 FloripaSat 1 1 44885U 19093G 25023.81206016 .00010248 00000-0 92469-3 0 9995 2 44885 97.8251 111.3678 0010496 306.3386 53.6865 14.95676459276283 RS-44 1 44909U 19096E 25023.81595369 .00000008 00000-0 -59717-5 0 9992 2 44909 82.5247 318.1653 0216327 255.3468 102.3562 12.79737916237235 UPMSat 2 1 46276U 20061E 25023.60443763 .00049611 00000-0 86406-3 0 9997 2 46276 97.2670 95.1954 0001449 68.4210 291.7196 15.50605432244129 AmicalSat 1 46287U 20061R 25010.85863821 .11283921 24654-5 56408-3 0 9994 2 46287 97.2840 89.8720 0009935 281.1985 78.8199 16.41970930241877 SALSAT 1 46495U 20068K 25023.46573510 .00015272 00000-0 72541-3 0 9996 2 46495 97.8450 355.6335 0010356 278.9504 81.0557 15.19286894237688 CubeSX-Sirius-HSE 1 47951U 21022V 25023.82691485 .00075810 00000-0 13950-2 0 9999 2 47951 97.4371 290.4035 0011992 72.2130 288.0429 15.48848802212421 CubeSX-HSE 1 47952U 21022W 25023.74850699 .00077203 00000-0 14048-2 0 9992 2 47952 97.4362 290.4883 0012123 72.2116 288.0456 15.49162170212422 KSU-Cubesat 1 47954U 21022Y 25023.67586865 .00169261 00000-0 17848-2 0 9994 2 47954 97.4355 293.8989 0010629 69.7968 290.4432 15.63629694212353 GRBAlpha 1 47959U 21022AD 25023.77306223 .00079279 00000-0 14466-2 0 9990 2 47959 97.4365 290.6787 0011940 72.4850 287.7704 15.49076737211255 Orbicraft-Zorkiy 1 47960U 21022AE 25023.77764005 .00121233 00000-0 16145-2 0 9992 2 47960 97.4362 293.4315 0010996 69.7048 290.5388 15.57664671212092 TUBIN 1 48900U 21059X 25023.75811210 .00042329 00000-0 86926-3 0 9999 2 48900 97.6635 183.5321 0005321 21.5808 338.5664 15.45881397198809 LEDSAT 1 49069U 21073D 25023.72825493 .00049431 00000-0 11478-2 0 9997 2 49069 97.4088 101.4623 0013058 215.6130 144.4246 15.42122550190224 CUTE 1 49263U 21088D 25023.64564745 .00052944 00000-0 13634-2 0 9999 2 49263 97.4689 96.5111 0009768 25.7604 334.4126 15.39001702183302 TeikyoSat 4 1 49396U 21102B 25023.58610309 .00004785 00000-0 32671-3 0 9997 2 49396 97.4323 66.8935 0011417 239.9760 120.0335 15.06589013175913 Z-Sat 1 49399U 21102E 25023.76364894 .00007673 00000-0 44390-3 0 9995 2 49399 97.4026 69.3988 0017849 214.0723 145.9363 15.12394630176284 KOSEN 1 1 49402U 21102H 25023.57516989 .00011554 00000-0 58254-3 0 9990 2 49402 97.3941 71.6943 0016423 192.4895 167.5934 15.17186020176491 HO-113 1 50466U 21131B 25023.80085051 .00001584 00000-0 51181-3 0 9995 2 50466 98.5165 113.8493 0004301 173.2089 186.9158 14.40475261161756 IRIS-A 1 51044U 22002BN 25023.15503493 .00078949 00000-0 12064-2 0 9994 2 51044 97.3506 97.4980 0003806 327.6250 32.4770 15.54135561168290 Foresail-1 1 52766U 22057AL 25023.30996908 .00076832 00000-0 11814-2 0 9991 2 52766 97.5964 163.4051 0005627 56.2214 303.9574 15.53961578148350 SNUGLITE 2 1 52899U 22065F 25023.35221263 .00003578 00000-0 71490-3 0 9991 2 52899 98.1447 166.9059 0007622 176.1186 184.0076 14.62487318136427 IO-117 1 53106U 22080B 25013.55270770 -.00000003 00000-0 00000+0 0 9994 2 53106 70.1424 119.4379 0008206 58.9554 301.1910 6.42557525 58785 FO-118 1 54684U 22167C 25023.76854537 .00235077 00000-0 18190-2 0 9997 2 54684 97.6107 185.1093 0003476 15.7376 344.3993 15.71162645118356 SO-120 1 56992U 23084BU 25023.83470302 .00436926 00000-0 21771-2 0 9997 2 56992 97.5270 157.5135 0009471 299.6434 60.3889 15.80695704 90253 UmKA 1 (RS40S) 1 57172U 23091G 25023.80919210 .00010588 00000-0 60679-3 0 9992 2 57172 97.5819 79.9938 0016777 86.5714 273.7435 15.12660260 86786 CubeBel-2 (EU11S) 1 57175U 23091K 25023.80354571 .00015365 00000-0 81824-3 0 9991 2 57175 97.5818 80.4503 0014711 95.8545 264.4364 15.15217167 86813 VERONIKA 1 58261U 23174F 25023.77554331 .00065153 00000-0 15386-2 0 9991 2 58261 97.4334 105.0121 0007925 179.2018 180.9243 15.41598290 67436 KAFASAT 1 58317U 23174BP 25023.58105271 .00144589 00000-0 19982-2 0 9994 2 58317 97.4232 107.5271 0004614 156.7464 203.4000 15.56640197 67606 ENSO 1 58470U 23185J 25023.82007314 .00047456 00000-0 11978-2 0 9994 2 58470 97.3956 96.1419 0008684 210.7827 149.2911 15.39653795 63883 EIRSAT-1 1 58472U 23185L 25023.82674936 .00059272 00000-0 13359-2 0 9990 2 58472 97.3950 96.7035 0007949 211.7185 148.3585 15.43025821 63920 SONATE-2 1 59112U 24043Q 25021.87028131 .00024458 00000-0 87701-3 0 9990 2 59112 97.4954 151.1457 0011652 246.2508 113.7509 15.28647274 49098 MO-122 1 60209U 24125G 25023.54663282 .00026380 00000-0 93211-3 0 9997 2 60209 97.2958 237.1980 0020546 269.1372 90.7514 15.28972171 30963 GRBBeta 1 60237U 24128C 25023.76598793 .00007811 00000-0 62307-3 0 9999 2 60237 61.9917 195.8693 0036977 25.3602 334.9292 15.00520926 29658 Curium One 1 60242U 24128H 25023.76978721 .00012674 00000-0 97225-3 0 9998 2 60242 61.9820 195.6632 0037092 19.1414 341.1060 15.01592081 29665 ROBUSTA-3A 1 60243U 24128J 25023.80251018 .00010104 00000-0 78689-3 0 9996 2 60243 61.9887 195.9710 0035072 17.0818 343.1443 15.01249734 29661 CatSat 1 60246U 24125J 25022.29449594 .00019571 00000-0 73613-3 0 9995 2 60246 97.2752 236.4649 0045163 224.6425 135.1174 15.26202208 28864 AO-123 1 61781U 24199AY 25023.81425978 .00014482 00000-0 57846-3 0 9996 2 61781 97.3766 253.3761 0016306 327.5220 32.5013 15.25118811 56016 POEM 4 (BGS ARPIT) 1 62461U 24253C 25023.79770067 .00119286 00000-0 73529-3 0 9996 2 62461 55.2211 140.5352 0007693 347.8149 12.2711 15.76349504 3784 /EX